[[{"header":{"parameterUnit":"m.s-1","parameterCategory":2,"la1":30.2991,"la2":30.254,"lo1":-89.0895,"lo2":-89.0444,"dy":0.0017,"dx":0.0017,"nx":28,"ny":28,"refTime":"2024-08-03T21:00:00:Z","depth":"0","parameterNumber":2,"parameterNumberName":"U-component_of_CURRENTS"},"data":[0,0,0,0,0,0,0,0,0,0,0,0,0,0,0,0,0,0,0,0,0,0,0,0,0,0,0,0,0,0,0,0,0,0,0,0,0,0,0,0,0,0,0,0,0,0,0,0,0,0,0,0,0,0,0,0,0,0,-0.1611,-0.1611,0,-0.155,-0.1549,-0.1549,-0.1499,-0.1498,-0.1497,-0.1496,-0.1479,-0.1479,-0.1479,0,0,0,0,0,0,0,0,0,0,0,0,0,-0.1686,-0.1685,-0.1611,-0.161,-0.1609,-0.155,-0.1549,-0.1549,-0.1499,-0.1498,-0.1497,-0.1496,-0.1479,-0.1479,-0.1479,0,0,0,0,0,0,0,0,0,0,0,0,0,-0.1644,-0.1685,-0.1612,-0.1576,-0.1572,-0.155,-0.1549,-0.1549,-0.1499,-0.1498,-0.1497,-0.1496,-0.1479,-0.1479,-0.1479,-0.1502,0,0,-0.148,-0.148,0,0,0,0,0,0,0,0,-0.1646,-0.1641,-0.1582,-0.1578,-0.1574,-0.1529,-0.1569,-0.1535,-0.1499,-0.1529,-0.1496,-0.1495,-0.1499,-0.1498,-0.1491,-0.1502,-0.1501,-0.148,-0.148,-0.148,-0.1481,0,0,0,0,0,0,0,-0.1649,-0.1644,-0.1589,-0.1581,-0.1576,-0.1563,-0.1556,-0.1562,-0.1523,-0.1526,-0.1522,-0.1512,-0.1497,-0.1491,-0.149,-0.1501,-0.148,-0.148,-0.1481,-0.1481,-0.1577,-0.158,0,0,0,0,0,0,-0.1654,-0.1647,-0.1591,-0.1587,-0.1606,-0.1562,-0.1555,-0.1546,-0.1522,-0.1516,-0.1513,-0.151,-0.1491,-0.149,-0.1489,-0.1538,-0.148,-0.1481,-0.1481,-0.1575,-0.1578,-0.158,0,0,0,0,0,0,-0.1656,-0.165,-0.1593,-0.1614,-0.1605,-0.1562,-0.1553,-0.1545,-0.1533,-0.1511,-0.1506,-0.1507,-0.149,-0.1489,-0.1508,-0.1536,-0.1481,-0.1481,-0.1572,-0.1576,-0.1579,-0.1622,0,0,0,0,0,0,-0.1658,-0.1651,-0.165,-0.1614,-0.1604,-0.1595,-0.1553,-0.1545,-0.1528,-0.1523,-0.1505,-0.1502,-0.1489,-0.1508,-0.1508,-0.1536,-0.1481,-0.1569,-0.1574,-0.1578,-0.1618,-0.1627,-0.1634,0,0,0,0,0,-0.1661,-0.1673,-0.165,-0.1644,-0.1603,-0.1596,-0.1591,-0.1557,-0.1529,-0.1539,-0.1527,-0.1503,-0.1537,-0.151,-0.151,-0.1538,-0.1567,-0.1572,-0.1578,-0.1614,-0.1625,-0.1634,0,0,0,0,0,0,-0.1707,-0.1667,-0.1642,-0.164,-0.1623,-0.1587,-0.1589,-0.1562,-0.1557,-0.1555,-0.1525,-0.1523,-0.1557,-0.1548,-0.1518,-0.1585,-0.1552,-0.1558,-0.158,-0.159,-0.1598,-0.1582,-0.1482,0,0,0,0,0,-0.1715,-0.1708,-0.1674,-0.1671,-0.1665,-0.1626,-0.1616,-0.1598,-0.1585,-0.1579,-0.1568,-0.1568,-0.1581,-0.1583,-0.1599,-0.1626,-0.1613,-0.165,-0.1659,-0.1665,-0.1656,-0.1652,-0.1657,-0.1598,-0.1598,-0.1598,0,0,-0.1727,-0.1706,-0.1699,-0.1679,-0.1659,-0.1678,-0.1619,-0.1618,-0.1632,-0.1582,-0.1607,-0.16,-0.1599,-0.1634,-0.1648,-0.1625,-0.1687,-0.1672,-0.1678,-0.1665,-0.1658,-0.1663,-0.1667,-0.1602,-0.1601,-0.16,0,0,-0.1768,-0.1735,-0.1752,-0.1747,-0.173,-0.1715,-0.1717,-0.1694,-0.1682,-0.1707,-0.1677,-0.1677,-0.1706,-0.1695,-0.1695,-0.1761,-0.1737,-0.1782,-0.1799,-0.1795,-0.1799,-0.1802,-0.1829,-0.1834,-0.1779,-0.1779,-0.1779,0,-0.1785,-0.1795,-0.1758,-0.1785,-0.1782,-0.1738,-0.1767,-0.1761,-0.175,-0.1745,-0.1732,-0.1745,-0.1733,-0.1749,-0.1767,-0.1775,-0.178,-0.1754,-0.1802,-0.1804,-0.1806,-0.1833,-0.1838,-0.1781,-0.1781,-0.1781,-0.1781,0,-0.1843,-0.1854,-0.1867,-0.188,-0.1884,-0.1898,-0.1885,-0.1891,-0.1871,-0.1858,-0.1869,-0.1844,-0.1841,-0.1847,-0.182,-0.1836,-0.1841,-0.1815,-0.1765,-0.1814,-0.1841,-0.1845,-0.1785,-0.1784,-0.1783,-0.1783,0,0,-0.1853,-0.1899,-0.1897,-0.1919,-0.1929,-0.1936,-0.1969,-0.1972,-0.1981,-0.1973,-0.1983,-0.1972,-0.1931,-0.1928,-0.1891,-0.1871,-0.1892,-0.1846,-0.1844,-0.1854,-0.1911,-0.1947,-0.1955,-0.187,-0.187,-0.1871,-0.1936,0,-0.1899,-0.197,-0.1974,-0.2032,-0.2064,-0.2044,-0.207,-0.2072,-0.2066,-0.2076,-0.2029,-0.2034,-0.1972,-0.196,-0.1934,-0.19,-0.1899,-0.1878,-0.1878,-0.1879,-0.1887,-0.1959,-0.183,-0.1879,-0.194,-0.194,-0.1941,0,-0.1933,-0.198,-0.205,-0.2095,-0.2103,-0.2133,-0.2145,-0.2163,-0.2165,-0.2156,-0.214,-0.2115,-0.2081,-0.2025,-0.1984,-0.1975,-0.1948,-0.1919,-0.1921,-0.1933,-0.1921,-0.1836,-0.1884,-0.1781,-0.1946,-0.1946,-0.1945,0,-0.1933,-0.2013,-0.2066,-0.2085,-0.2145,-0.216,-0.2173,-0.2183,-0.2184,-0.2196,-0.2207,-0.2177,-0.216,-0.2112,-0.2049,-0.202,-0.2021,-0.1977,-0.1994,-0.1998,-0.1877,-0.1869,-0.18,-0.1963,-0.1962,-0.1962,-0.1962,0,-0.1955,-0.1986,-0.2073,-0.2101,-0.213,-0.2177,-0.2198,-0.2195,-0.2227,-0.2244,-0.2231,-0.224,-0.2175,-0.2168,-0.2101,-0.2075,-0.2067,-0.2015,-0.2016,-0.1897,-0.1891,-0.1786,-0.1761,-0.1965,-0.1964,-0.1964,-0.1963,0,-0.1907,-0.198,-0.2022,-0.2105,-0.2125,-0.2126,-0.2174,-0.2201,-0.2234,-0.2263,-0.2269,-0.2291,-0.2287,-0.2245,-0.2195,-0.2153,-0.2064,-0.2109,-0.1997,-0.1985,-0.1907,-0.1891,-0.1904,-0.1864,-0.2145,-0.2146,-0.2147,0,-0.188,-0.1915,-0.198,-0.1986,-0.2012,-0.2052,-0.208,-0.2156,-0.2205,-0.2288,-0.2309,-0.2345,-0.237,-0.2346,-0.2264,-0.2213,-0.211,-0.2077,-0.1989,-0.1905,-0.1888,-0.1894,-0.1859,-0.1856,-0.1855,-0.1854,-0.1853,0,-0.1798,-0.1815,-0.1831,-0.1851,-0.1886,-0.1948,-0.2021,-0.207,-0.2188,-0.2241,-0.2327,-0.2369,-0.2401,-0.2294,-0.2255,-0.2193,-0.1991,-0.2057,-0.1962,-0.1666,-0.1671,-0.1631,-0.1843,-0.1843,-0.1844,-0.1845,-0.1845,-0.1846,-0.1671,-0.1644,-0.1658,-0.1654,-0.1711,-0.1798,-0.1788,-0.1937,-0.2004,-0.2013,-0.2208,-0.2138,-0.2141,-0.2075,-0.2068,-0.1903,-0.1983,-0.1764,-0.1761,-0.1784,-0.1713,-0.1949,-0.1958,-0.196,-0.1961,-0.1962,-0.1963,0,-0.1493,-0.1477,-0.1467,-0.1462,-0.1461,-0.1568,-0.1694,-0.1666,-0.1703,-0.1752,-0.1785,-0.1693,-0.1656,-0.1642,-0.1588,-0.1547,-0.1527,-0.1497,-0.1395,-0.138,-0.1545,-0.1494,-0.141,-0.141,-0.141,-0.141,-0.1411,-0.1411,-0.1384,-0.1298,-0.1298,-0.1196,-0.1211,-0.1175,-0.1211,-0.1224,-0.1218,-0.1123,-0.1023,-0.103,-0.1154,-0.1267,-0.1224,-0.1207,-0.1143,-0.1173,-0.1222,-0.1223,-0.1244,-0.1264,-0.1206,-0.1063,-0.1063,-0.0968,-0.0967,-0.0966]},{"header":{"parameterUnit":"m.s-1","parameterCategory":2,"la1":30.2991,"la2":30.254,"lo1":-89.0895,"lo2":-89.0444,"dy":0.0017,"dx":0.0017,"nx":28,"ny":28,"refTime":"2024-08-03T21:00:00:Z","depth":"0","parameterNumber":3,"parameterNumberName":"V-component_of_CURRENTS"},"data":[0,0,0,0,0,0,0,0,0,0,0,0,0,0,0,0,0,0,0,0,0,0,0,0,0,0,0,0,0,0,0,0,0,0,0,0,0,0,0,0,0,0,0,0,0,0,0,0,0,0,0,0,0,0,0,0,0,0,-0.0397,-0.0396,0,-0.0324,-0.0323,-0.0322,-0.0303,-0.0303,-0.0303,-0.0303,-0.0241,-0.0239,-0.0238,0,0,0,0,0,0,0,0,0,0,0,0,0,-0.0496,-0.0495,-0.0397,-0.0396,-0.0395,-0.0324,-0.0323,-0.0322,-0.0302,-0.0303,-0.0303,-0.0303,-0.0242,-0.024,-0.0237,0,0,0,0,0,0,0,0,0,0,0,0,0,-0.0443,-0.0494,-0.0397,-0.0375,-0.0372,-0.0324,-0.0323,-0.0322,-0.0302,-0.0303,-0.0303,-0.0303,-0.0243,-0.024,-0.0237,-0.0213,0,0,-0.0229,-0.0227,0,0,0,0,0,0,0,0,-0.0446,-0.044,-0.0379,-0.0376,-0.0373,-0.0321,-0.0335,-0.0285,-0.0302,-0.0331,-0.0303,-0.0304,-0.0267,-0.0262,-0.0251,-0.021,-0.0207,-0.0228,-0.0227,-0.0225,-0.0225,0,0,0,0,0,0,0,-0.045,-0.0443,-0.037,-0.0378,-0.0374,-0.036,-0.0353,-0.0326,-0.03,-0.0329,-0.0326,-0.0315,-0.0266,-0.0254,-0.0249,-0.0206,-0.0228,-0.0226,-0.0224,-0.0223,-0.0145,-0.0145,0,0,0,0,0,0,-0.0455,-0.0446,-0.0373,-0.0368,-0.0409,-0.0358,-0.0351,-0.0339,-0.03,-0.0294,-0.0315,-0.0314,-0.0258,-0.0252,-0.0247,-0.0215,-0.0225,-0.0223,-0.0221,-0.0146,-0.0145,-0.0145,0,0,0,0,0,0,-0.0458,-0.0449,-0.0376,-0.0404,-0.0393,-0.0356,-0.0343,-0.0337,-0.0323,-0.0289,-0.0283,-0.0306,-0.0258,-0.0251,-0.0228,-0.0213,-0.0222,-0.0219,-0.0146,-0.0145,-0.0145,-0.0153,0,0,0,0,0,0,-0.0461,-0.0451,-0.0442,-0.0404,-0.0392,-0.035,-0.0342,-0.0336,-0.0314,-0.0313,-0.0279,-0.0274,-0.0258,-0.0233,-0.0226,-0.0209,-0.0217,-0.0147,-0.0146,-0.0145,-0.0153,-0.0153,-0.0152,0,0,0,0,0,-0.0465,-0.0448,-0.0443,-0.0433,-0.0382,-0.035,-0.0342,-0.0318,-0.0313,-0.0307,-0.0289,-0.0275,-0.0223,-0.023,-0.0222,-0.0204,-0.0147,-0.0146,-0.0145,-0.0153,-0.0153,-0.0152,0,0,0,0,0,0,-0.0478,-0.0443,-0.0436,-0.0408,-0.0384,-0.0346,-0.0329,-0.0317,-0.0296,-0.0295,-0.0271,-0.0264,-0.0238,-0.0221,-0.023,-0.0181,-0.0181,-0.0179,-0.019,-0.019,-0.0189,-0.0189,-0.0214,0,0,0,0,0,-0.0479,-0.0463,-0.0429,-0.0407,-0.0395,-0.0364,-0.0346,-0.0334,-0.0309,-0.0299,-0.0278,-0.0253,-0.0227,-0.021,-0.0189,-0.0159,-0.0161,-0.0142,-0.0142,-0.0142,-0.0136,-0.0132,-0.0131,-0.0142,-0.0142,-0.0142,0,0,-0.0476,-0.0455,-0.0445,-0.041,-0.0388,-0.0368,-0.0355,-0.0329,-0.0311,-0.0295,-0.0268,-0.0252,-0.0221,-0.0193,-0.0178,-0.0176,-0.0143,-0.0141,-0.0141,-0.0135,-0.0131,-0.013,-0.013,-0.0141,-0.0141,-0.0141,0,0,-0.0469,-0.0446,-0.0437,-0.0418,-0.0388,-0.0366,-0.0361,-0.0327,-0.0312,-0.0287,-0.027,-0.0245,-0.0208,-0.018,-0.0161,-0.0142,-0.0144,-0.0138,-0.0128,-0.0125,-0.0124,-0.0124,-0.0141,-0.0142,-0.0133,-0.0133,-0.0133,0,-0.047,-0.0454,-0.0428,-0.0415,-0.04,-0.0368,-0.0357,-0.0328,-0.0294,-0.0286,-0.0281,-0.023,-0.0198,-0.0161,-0.0149,-0.0139,-0.0152,-0.0134,-0.0125,-0.0125,-0.0124,-0.0141,-0.0142,-0.0133,-0.0133,-0.0133,-0.0133,0,-0.0461,-0.0448,-0.0438,-0.0415,-0.0394,-0.0377,-0.034,-0.0321,-0.0301,-0.0282,-0.0253,-0.0215,-0.019,-0.0167,-0.0145,-0.0119,-0.0137,-0.0131,-0.013,-0.0123,-0.0142,-0.0143,-0.0134,-0.0134,-0.0134,-0.0133,0,0,-0.0471,-0.0441,-0.044,-0.0445,-0.0397,-0.0389,-0.0347,-0.0317,-0.0318,-0.0271,-0.027,-0.0195,-0.019,-0.0167,-0.0141,-0.0118,-0.0115,-0.0119,-0.0119,-0.0142,-0.0133,-0.0125,-0.0125,-0.0118,-0.0117,-0.0117,-0.0155,0,-0.0478,-0.0472,-0.0446,-0.0442,-0.0437,-0.0399,-0.0379,-0.0348,-0.0319,-0.0312,-0.0255,-0.0244,-0.0185,-0.0188,-0.015,-0.0131,-0.0115,-0.0106,-0.013,-0.0131,-0.0128,-0.0123,-0.0044,-0.0069,-0.0156,-0.0156,-0.0156,0,-0.0485,-0.0483,-0.048,-0.0485,-0.0481,-0.0471,-0.0455,-0.0434,-0.0394,-0.0378,-0.0336,-0.031,-0.0254,-0.0222,-0.0164,-0.0169,-0.0146,-0.0125,-0.0127,-0.0113,-0.0122,-0.0085,-0.0067,0.0034,-0.0157,-0.0157,-0.0157,0,-0.0526,-0.0516,-0.0523,-0.0516,-0.0502,-0.0502,-0.0494,-0.0458,-0.0463,-0.0423,-0.0439,-0.0366,-0.0361,-0.0296,-0.0226,-0.0208,-0.0189,-0.0166,-0.0136,-0.0137,-0.0068,-0.0063,0.0046,-0.0133,-0.0133,-0.0133,-0.0133,0,-0.0551,-0.0563,-0.055,-0.0557,-0.0586,-0.0558,-0.0586,-0.056,-0.0552,-0.0579,-0.0487,-0.0504,-0.0381,-0.0349,-0.0268,-0.0207,-0.0222,-0.0134,-0.0139,-0.007,-0.0065,0.0028,0.0054,-0.0134,-0.0134,-0.0134,-0.0134,0,-0.059,-0.058,-0.0591,-0.0591,-0.0604,-0.062,-0.0649,-0.0679,-0.0654,-0.0686,-0.0682,-0.0624,-0.0572,-0.0458,-0.0376,-0.0285,-0.0159,-0.0195,-0.013,-0.0126,0.0017,0.0039,0.0097,0.0128,-0.0162,-0.0162,-0.0162,0,-0.0607,-0.0615,-0.0623,-0.0643,-0.0645,-0.0677,-0.0718,-0.0721,-0.075,-0.0767,-0.0797,-0.0758,-0.0711,-0.0577,-0.04,-0.0257,-0.0186,-0.0127,-0.0053,0.0041,0.006,0.0072,0.0094,0.0024,0.0025,0.0027,0.0028,0,-0.0631,-0.0626,-0.0627,-0.0667,-0.071,-0.0777,-0.0827,-0.0867,-0.0885,-0.0895,-0.092,-0.0886,-0.0748,-0.0528,-0.033,-0.024,-0.004,-0.0098,-0.0001,0.0218,0.024,0.0261,0.001,0.0039,0.0038,0.0037,0.0037,0.0036,-0.0629,-0.0634,-0.0634,-0.0673,-0.0737,-0.0834,-0.0868,-0.091,-0.0946,-0.0871,-0.0933,-0.0752,-0.0556,-0.0245,-0.0176,0.0084,0.0024,0.0199,0.0213,0.0211,0.0272,0.0032,0.0057,0.0056,0.0055,0.0054,0.0054,0,-0.061,-0.0623,-0.0654,-0.0693,-0.0767,-0.081,-0.0911,-0.0905,-0.0898,-0.0753,-0.0683,-0.0372,-0.0118,0.0078,0.0364,0.0448,0.0452,0.0472,0.0544,0.0547,0.0353,0.0397,0.05,0.05,0.05,0.05,0.0499,0.0499,-0.0595,-0.0601,-0.0614,-0.0692,-0.0742,-0.0822,-0.0864,-0.0828,-0.0712,-0.0415,-0.0122,0.0041,0.0213,0.0566,0.0783,0.077,0.0817,0.0789,0.0771,0.0699,0.0676,0.0654,0.0706,0.0872,0.0872,0.1005,0.1006,0.1007]}],[{"header":{"parameterUnit":"m.s-1","parameterCategory":2,"la1":30.2991,"la2":30.254,"lo1":-89.0895,"lo2":-89.0444,"dy":0.0017,"dx":0.0017,"nx":28,"ny":28,"refTime":"2024-08-03T21:00:00:Z","depth":"2","parameterNumber":2,"parameterNumberName":"U-component_of_CURRENTS"},"data":[0,0,0,0,0,0,0,0,0,0,0,0,0,0,0,0,0,0,0,0,0,0,0,0,0,0,0,0,0,0,0,0,0,0,0,0,0,0,0,0,0,0,0,0,0,0,0,0,0,0,0,0,0,0,0,0,0,0,-0.1486,-0.1485,0,-0.145,-0.1449,-0.1449,-0.1407,-0.1406,-0.1406,-0.1405,-0.1388,-0.1389,-0.1389,0,0,0,0,0,0,0,0,0,0,0,0,0,-0.1524,-0.1524,-0.1486,-0.1485,-0.1485,-0.145,-0.1449,-0.1449,-0.1407,-0.1406,-0.1406,-0.1405,-0.1388,-0.1388,-0.1389,0,0,0,0,0,0,0,0,0,0,0,0,0,-0.15,-0.1524,-0.1486,-0.146,-0.1457,-0.145,-0.1449,-0.1449,-0.1407,-0.1406,-0.1405,-0.1405,-0.1388,-0.1388,-0.1389,-0.141,0,0,-0.1389,-0.139,0,0,0,0,0,0,0,0,-0.1501,-0.1499,-0.1464,-0.1462,-0.1458,-0.1432,-0.1456,-0.1436,-0.1408,-0.1427,-0.1405,-0.1404,-0.1405,-0.1404,-0.1399,-0.1409,-0.1408,-0.1389,-0.139,-0.139,-0.139,0,0,0,0,0,0,0,-0.1503,-0.15,-0.1472,-0.1464,-0.146,-0.1452,-0.1447,-0.1452,-0.1422,-0.1425,-0.1422,-0.1418,-0.1404,-0.1399,-0.1399,-0.1408,-0.1389,-0.139,-0.139,-0.139,-0.1485,-0.1488,0,0,0,0,0,0,-0.1508,-0.1502,-0.1473,-0.1471,-0.1478,-0.1452,-0.1447,-0.1441,-0.1422,-0.1418,-0.1418,-0.1416,-0.1399,-0.1399,-0.1398,-0.1455,-0.139,-0.139,-0.139,-0.1483,-0.1486,-0.1489,0,0,0,0,0,0,-0.1509,-0.1506,-0.1474,-0.1485,-0.148,-0.1452,-0.1447,-0.1441,-0.1434,-0.1417,-0.1413,-0.1416,-0.1399,-0.1398,-0.1415,-0.1452,-0.139,-0.139,-0.148,-0.1484,-0.1487,-0.1547,0,0,0,0,0,0,-0.151,-0.1506,-0.1509,-0.1486,-0.148,-0.1483,-0.1447,-0.1441,-0.1433,-0.1429,-0.1414,-0.1411,-0.1398,-0.1415,-0.1415,-0.1452,-0.139,-0.1477,-0.1482,-0.1486,-0.1542,-0.1552,-0.1561,0,0,0,0,0,-0.1512,-0.1527,-0.1509,-0.1506,-0.1483,-0.1484,-0.1481,-0.1457,-0.1434,-0.1444,-0.1433,-0.1411,-0.1444,-0.1416,-0.1416,-0.1454,-0.1475,-0.1481,-0.1486,-0.1538,-0.155,-0.1561,0,0,0,0,0,0,-0.1556,-0.1523,-0.1504,-0.151,-0.1501,-0.1477,-0.1483,-0.1462,-0.146,-0.1458,-0.1431,-0.143,-0.1467,-0.1455,-0.1425,-0.1499,-0.1461,-0.1466,-0.1501,-0.1512,-0.1521,-0.1505,-0.1391,0,0,0,0,0,-0.1564,-0.1556,-0.1533,-0.1539,-0.1535,-0.1508,-0.1504,-0.1492,-0.1483,-0.148,-0.147,-0.1473,-0.1491,-0.1494,-0.151,-0.1539,-0.1522,-0.1569,-0.1579,-0.1586,-0.1577,-0.1567,-0.1573,-0.1506,-0.1506,-0.1506,0,0,-0.1581,-0.1563,-0.1558,-0.1546,-0.1533,-0.1553,-0.1504,-0.151,-0.1533,-0.1482,-0.1513,-0.1507,-0.1509,-0.155,-0.1565,-0.1539,-0.1609,-0.1593,-0.16,-0.1585,-0.1573,-0.1579,-0.1584,-0.151,-0.1509,-0.1509,0,0,-0.1623,-0.1597,-0.1609,-0.1605,-0.1595,-0.1589,-0.1593,-0.158,-0.1578,-0.1608,-0.1583,-0.1587,-0.162,-0.1614,-0.162,-0.169,-0.1664,-0.1714,-0.1737,-0.1729,-0.1733,-0.1737,-0.1765,-0.177,-0.1711,-0.1711,-0.1711,0,-0.1644,-0.1651,-0.1618,-0.1636,-0.1634,-0.161,-0.1635,-0.1646,-0.1644,-0.1642,-0.1635,-0.1657,-0.165,-0.1677,-0.1702,-0.1708,-0.171,-0.1689,-0.1738,-0.174,-0.1743,-0.177,-0.1775,-0.1715,-0.1714,-0.1714,-0.1713,0,-0.1691,-0.1702,-0.1712,-0.1721,-0.1726,-0.1741,-0.1746,-0.1755,-0.1751,-0.1755,-0.1778,-0.1764,-0.1763,-0.1779,-0.1759,-0.1782,-0.1785,-0.1753,-0.1699,-0.1752,-0.178,-0.1783,-0.172,-0.1718,-0.1717,-0.1716,0,0,-0.171,-0.1738,-0.1738,-0.1732,-0.1762,-0.1752,-0.1812,-0.1828,-0.1822,-0.1857,-0.1848,-0.1889,-0.1857,-0.1859,-0.1834,-0.182,-0.1849,-0.1794,-0.1792,-0.1806,-0.1862,-0.1834,-0.1836,-0.1821,-0.1821,-0.1822,-0.1888,0,-0.1748,-0.1791,-0.1798,-0.1825,-0.184,-0.183,-0.1846,-0.1862,-0.189,-0.1884,-0.1889,-0.1889,-0.1901,-0.1873,-0.1877,-0.185,-0.1856,-0.1835,-0.1822,-0.1822,-0.1775,-0.1837,-0.1626,-0.1664,-0.1892,-0.1892,-0.1893,0,-0.1776,-0.1799,-0.1843,-0.1818,-0.1813,-0.1833,-0.1817,-0.1823,-0.1847,-0.186,-0.1899,-0.1903,-0.1924,-0.1888,-0.1922,-0.1912,-0.1895,-0.1874,-0.1876,-0.182,-0.1799,-0.1641,-0.1662,-0.1899,-0.1898,-0.1898,-0.1897,0,-0.1762,-0.1802,-0.1825,-0.1829,-0.1829,-0.1823,-0.1804,-0.1822,-0.1818,-0.1846,-0.188,-0.1904,-0.1928,-0.1915,-0.1938,-0.1921,-0.1949,-0.1916,-0.1888,-0.1888,-0.1688,-0.167,-0.1911,-0.1911,-0.191,-0.191,-0.191,0,-0.1769,-0.177,-0.1815,-0.1816,-0.1778,-0.1781,-0.1749,-0.174,-0.1763,-0.1795,-0.1854,-0.1914,-0.1933,-0.1978,-0.195,-0.1963,-0.1981,-0.1903,-0.1896,-0.1712,-0.1695,-0.1867,-0.1861,-0.1913,-0.1912,-0.1912,-0.1911,0,-0.1723,-0.177,-0.1769,-0.1782,-0.1772,-0.1727,-0.1707,-0.1703,-0.1739,-0.1799,-0.1818,-0.1942,-0.2015,-0.2035,-0.2024,-0.2006,-0.1973,-0.1958,-0.1768,-0.1736,-0.1917,-0.1914,-0.1939,-0.1939,-0.1938,-0.1938,-0.1938,0,-0.1703,-0.1716,-0.1721,-0.1707,-0.1712,-0.1674,-0.1656,-0.1673,-0.1729,-0.1842,-0.1896,-0.1993,-0.2069,-0.2078,-0.2012,-0.1964,-0.1992,-0.1749,-0.1661,-0.1926,-0.1917,-0.1915,-0.1913,-0.1443,-0.1439,-0.1436,-0.1433,0,-0.1641,-0.1646,-0.1628,-0.1618,-0.1617,-0.1609,-0.1632,-0.1674,-0.1744,-0.1813,-0.1942,-0.1985,-0.2051,-0.1909,-0.185,-0.1793,-0.1736,-0.1678,-0.198,-0.1474,-0.1464,-0.1454,-0.1467,-0.1401,-0.1404,-0.1406,-0.1408,-0.1409,-0.1555,-0.1521,-0.1507,-0.1466,-0.1489,-0.1536,-0.1486,-0.1595,-0.1624,-0.1671,-0.1843,-0.1794,-0.1789,-0.1579,-0.1533,-0.1486,-0.1614,-0.1474,-0.1482,-0.1494,-0.143,-0.142,-0.1339,-0.1341,-0.1344,-0.1346,-0.1348,0,-0.1422,-0.1387,-0.1358,-0.1317,-0.1304,-0.1365,-0.1438,-0.1385,-0.1398,-0.1466,-0.1487,-0.1309,-0.1214,-0.1227,-0.1108,-0.1122,-0.1091,-0.1063,-0.0972,-0.1004,-0.1032,-0.0942,-0.0722,-0.0721,-0.072,-0.0719,0,0,-0.1335,-0.1244,-0.1221,-0.112,-0.1115,-0.1055,-0.1066,-0.1048,-0.1037,-0.0977,-0.0912,-0.097,-0.1068,-0.0811,-0.0813,-0.0733,-0.0846,-0.0698,-0.1186,-0.11,-0.1125,-0.1251,-0.1146,0,0,0,0,0]},{"header":{"parameterUnit":"m.s-1","parameterCategory":2,"la1":30.2991,"la2":30.254,"lo1":-89.0895,"lo2":-89.0444,"dy":0.0017,"dx":0.0017,"nx":28,"ny":28,"refTime":"2024-08-03T21:00:00:Z","depth":"2","parameterNumber":3,"parameterNumberName":"V-component_of_CURRENTS"},"data":[0,0,0,0,0,0,0,0,0,0,0,0,0,0,0,0,0,0,0,0,0,0,0,0,0,0,0,0,0,0,0,0,0,0,0,0,0,0,0,0,0,0,0,0,0,0,0,0,0,0,0,0,0,0,0,0,0,0,-0.022,-0.0219,0,-0.0175,-0.0174,-0.0174,-0.0154,-0.0154,-0.0154,-0.0154,-0.0096,-0.0095,-0.0093,0,0,0,0,0,0,0,0,0,0,0,0,0,-0.0258,-0.0257,-0.022,-0.0219,-0.0218,-0.0175,-0.0174,-0.0174,-0.0154,-0.0154,-0.0154,-0.0154,-0.0097,-0.0095,-0.0093,0,0,0,0,0,0,0,0,0,0,0,0,0,-0.023,-0.0257,-0.022,-0.0203,-0.0201,-0.0175,-0.0174,-0.0173,-0.0154,-0.0154,-0.0154,-0.0154,-0.0098,-0.0095,-0.0093,-0.0077,0,0,-0.0086,-0.0085,0,0,0,0,0,0,0,0,-0.0232,-0.0229,-0.0206,-0.0204,-0.0202,-0.017,-0.0166,-0.014,-0.0154,-0.0172,-0.0154,-0.0154,-0.012,-0.0115,-0.0107,-0.0074,-0.0071,-0.0085,-0.0084,-0.0083,-0.0082,0,0,0,0,0,0,0,-0.0234,-0.023,-0.0202,-0.0206,-0.0203,-0.0188,-0.0184,-0.0161,-0.0146,-0.017,-0.0169,-0.0164,-0.0118,-0.011,-0.0106,-0.0071,-0.0085,-0.0083,-0.0082,-0.0081,-0.0024,-0.0024,0,0,0,0,0,0,-0.024,-0.0232,-0.0203,-0.0201,-0.0217,-0.0187,-0.0183,-0.018,-0.0146,-0.0141,-0.0164,-0.0163,-0.0114,-0.0108,-0.0104,-0.0079,-0.0083,-0.0081,-0.0079,-0.0024,-0.0024,-0.0024,0,0,0,0,0,0,-0.0241,-0.0238,-0.0205,-0.0215,-0.021,-0.0187,-0.0183,-0.0179,-0.017,-0.0141,-0.0136,-0.0159,-0.0113,-0.0107,-0.0089,-0.0077,-0.008,-0.0078,-0.0024,-0.0024,-0.0024,-0.0032,0,0,0,0,0,0,-0.0243,-0.0239,-0.0239,-0.0216,-0.021,-0.0193,-0.0183,-0.0178,-0.0167,-0.0165,-0.0135,-0.013,-0.0113,-0.0093,-0.0087,-0.0073,-0.0076,-0.0025,-0.0024,-0.0024,-0.0032,-0.0032,-0.0032,0,0,0,0,0,-0.0244,-0.0244,-0.0239,-0.0236,-0.0211,-0.0193,-0.0189,-0.0172,-0.0166,-0.0164,-0.0147,-0.0131,-0.0088,-0.0091,-0.0084,-0.0069,-0.0025,-0.0024,-0.0024,-0.0031,-0.0032,-0.0032,0,0,0,0,0,0,-0.0259,-0.0241,-0.0236,-0.023,-0.0215,-0.019,-0.0183,-0.0173,-0.0157,-0.0154,-0.013,-0.0124,-0.0104,-0.0089,-0.0093,-0.0054,-0.0053,-0.0051,-0.0061,-0.0061,-0.0061,-0.0053,-0.0074,0,0,0,0,0,-0.0263,-0.0259,-0.0239,-0.0235,-0.0227,-0.0206,-0.0196,-0.0186,-0.0168,-0.0161,-0.0141,-0.0119,-0.0097,-0.0082,-0.0065,-0.0041,-0.0035,-0.0027,-0.0028,-0.0028,-0.0017,-0.0009,-0.0008,-0.0024,-0.0024,-0.0024,0,0,-0.0268,-0.0256,-0.0254,-0.0237,-0.0223,-0.0211,-0.02,-0.0187,-0.0172,-0.0156,-0.0134,-0.0121,-0.0094,-0.0071,-0.0059,-0.0055,-0.0023,-0.0028,-0.0028,-0.0017,-0.0009,-0.0007,-0.0006,-0.0023,-0.0024,-0.0024,0,0,-0.0276,-0.0264,-0.0265,-0.0252,-0.0233,-0.0216,-0.0214,-0.0191,-0.0176,-0.0159,-0.0141,-0.012,-0.0093,-0.0064,-0.0046,-0.0035,-0.003,-0.0036,-0.0021,-0.0014,-0.0013,-0.0011,-0.0016,-0.0015,-0.003,-0.003,-0.003,0,-0.0283,-0.0274,-0.0262,-0.0256,-0.0237,-0.0219,-0.0207,-0.019,-0.0166,-0.0149,-0.0155,-0.0109,-0.0084,-0.0043,-0.0037,-0.0033,-0.004,-0.0022,-0.0015,-0.0013,-0.0011,-0.0016,-0.0015,-0.003,-0.003,-0.003,-0.003,0,-0.029,-0.0279,-0.0275,-0.0258,-0.0241,-0.0225,-0.0199,-0.0183,-0.0166,-0.015,-0.0119,-0.0094,-0.0068,-0.0053,-0.0038,-0.0008,-0.0022,-0.0022,-0.0014,-0.001,-0.0016,-0.0014,-0.0031,-0.0031,-0.0031,-0.003,0,0,-0.0315,-0.0284,-0.0284,-0.0269,-0.0235,-0.0223,-0.0192,-0.0157,-0.0149,-0.0122,-0.009,-0.0055,-0.0054,-0.0034,-0.0015,0.0006,0.0012,-0.0003,-0.0002,-0.0008,0.0011,0.0074,0.0081,0.0004,0.0004,0.0005,-0.0003,0,-0.0319,-0.0307,-0.0284,-0.0262,-0.0246,-0.0209,-0.0182,-0.0152,-0.0138,-0.0109,-0.0062,-0.0049,-0.0044,-0.0042,-0.0015,0.0002,0.0018,0.0014,0.0009,0.0009,0.0065,0.0087,0.0106,0.0107,-0.0001,-0.0001,-0.0001,0,-0.0336,-0.0318,-0.0298,-0.0252,-0.0242,-0.0231,-0.0189,-0.0164,-0.0118,-0.0106,-0.008,-0.0067,-0.0023,-0.0023,0.0004,-0.0008,0.0005,0.002,0.002,0.0088,0.0077,0.0089,0.0114,0.0002,0.0001,0.0001,0.0001,0,-0.0364,-0.0327,-0.0307,-0.0293,-0.0245,-0.0228,-0.0201,-0.0171,-0.0159,-0.0116,-0.0128,-0.0075,-0.0062,-0.0037,-0.0015,-0.0017,0.0019,0.0016,0.0086,0.0089,0.0114,0.012,0.0045,0.0045,0.0045,0.0045,0.0045,0,-0.0377,-0.0365,-0.0325,-0.0319,-0.0295,-0.0253,-0.0242,-0.0216,-0.0184,-0.0185,-0.0145,-0.015,-0.007,-0.0046,-0.0016,0.004,0.0005,0.0102,0.0103,0.0111,0.0117,0.0035,0.0033,0.0045,0.0045,0.0045,0.0045,0,-0.0419,-0.0391,-0.0369,-0.0324,-0.0314,-0.03,-0.0273,-0.028,-0.0258,-0.0257,-0.0251,-0.0204,-0.0176,-0.0107,-0.0045,0.0029,0.0081,0.0108,0.0116,0.0121,0.0144,0.0143,0.0191,0.0193,0.0195,0.0197,0.0198,0,-0.0438,-0.0432,-0.039,-0.0389,-0.0374,-0.0353,-0.0352,-0.0315,-0.0332,-0.0312,-0.032,-0.0277,-0.0208,-0.0078,0.0029,0.0126,0.0096,0.0218,0.0247,0.017,0.0164,0.0159,0.0155,0.0256,0.0258,0.0259,0.026,0,-0.0467,-0.0454,-0.0434,-0.0436,-0.0438,-0.0436,-0.0437,-0.0449,-0.0416,-0.04,-0.0372,-0.0296,-0.0161,0.0007,0.0163,0.0209,0.0214,0.0255,0.0161,0.0234,0.0236,0.0229,0.0222,0.0273,0.0272,0.0271,0.027,0.027,-0.0484,-0.0481,-0.0466,-0.0465,-0.0484,-0.0517,-0.0518,-0.0513,-0.0491,-0.0428,-0.0367,-0.0205,-0.0047,0.0218,0.0273,0.0312,0.0311,0.036,0.0353,0.0345,0.0372,0.038,0.0447,0.0447,0.0447,0.0447,0.0446,0,-0.0484,-0.049,-0.0501,-0.0505,-0.055,-0.0549,-0.0574,-0.0557,-0.0518,-0.038,-0.0266,-0.0047,0.0169,0.0259,0.0363,0.0458,0.0418,0.0451,0.0391,0.0381,0.0371,0.0396,0.0479,0.0479,0.0478,0.0478,0,0,-0.0482,-0.0487,-0.0492,-0.0553,-0.0582,-0.0625,-0.0637,-0.0585,-0.0483,-0.0306,-0.0136,0.0099,0.0249,0.0337,0.0412,0.0443,0.0384,0.0436,0.0414,0.0327,0.0315,0.0335,0.0365,0,0,0,0,0]}],[{"header":{"parameterUnit":"m.s-1","parameterCategory":2,"la1":30.2991,"la2":30.254,"lo1":-89.0895,"lo2":-89.0444,"dy":0.0017,"dx":0.0017,"nx":28,"ny":28,"refTime":"2024-08-03T21:00:00:Z","depth":"4","parameterNumber":2,"parameterNumberName":"U-component_of_CURRENTS"},"data":[0,0,0,0,0,0,0,0,0,0,0,0,0,0,0,0,0,0,0,0,0,0,0,0,0,0,0,0,0,0,0,0,0,0,0,0,0,0,0,0,0,0,0,0,0,0,0,0,0,0,0,0,0,0,0,0,0,0,-0.1083,-0.1084,0,-0.1135,-0.1136,-0.1136,-0.1144,-0.1144,-0.1144,-0.1144,-0.1162,-0.1163,-0.1163,0,0,0,0,0,0,0,0,0,0,0,0,0,-0.097,-0.0972,-0.1083,-0.1084,-0.1085,-0.1135,-0.1136,-0.1136,-0.1144,-0.1144,-0.1144,-0.1144,-0.1162,-0.1163,-0.1164,0,0,0,0,0,0,0,0,0,0,0,0,0,-0.1016,-0.0972,-0.1083,-0.1099,-0.1101,-0.1135,-0.1136,-0.1136,-0.1144,-0.1144,-0.1144,-0.1144,-0.1162,-0.1163,-0.1164,-0.117,0,0,-0.1166,-0.1166,0,0,0,0,0,0,0,0,-0.1013,-0.1019,-0.1095,-0.1098,-0.11,-0.1137,-0.1103,-0.1147,-0.1144,-0.1123,-0.1144,-0.1144,-0.1154,-0.1155,-0.1159,-0.1171,-0.1171,-0.1166,-0.1167,-0.1167,-0.1167,0,0,0,0,0,0,0,-0.101,-0.1017,-0.1099,-0.1097,-0.11,-0.1097,-0.1103,-0.1111,-0.1134,-0.1125,-0.1127,-0.114,-0.1154,-0.1159,-0.116,-0.1172,-0.1166,-0.1167,-0.1167,-0.1168,-0.1204,-0.1204,0,0,0,0,0,0,-0.1014,-0.1015,-0.1098,-0.1101,-0.1061,-0.1099,-0.1106,-0.1122,-0.1135,-0.1138,-0.114,-0.114,-0.1157,-0.1159,-0.116,-0.1146,-0.1167,-0.1168,-0.1168,-0.1203,-0.1204,-0.1205,0,0,0,0,0,0,-0.1012,-0.1021,-0.1095,-0.1062,-0.1072,-0.1102,-0.1119,-0.1123,-0.1144,-0.1147,-0.1149,-0.116,-0.1157,-0.1159,-0.1178,-0.1147,-0.1168,-0.1169,-0.1203,-0.1204,-0.1204,-0.1131,0,0,0,0,0,0,-0.1008,-0.102,-0.1041,-0.1063,-0.1074,-0.1127,-0.112,-0.1124,-0.1154,-0.1155,-0.1165,-0.1166,-0.1157,-0.1177,-0.1179,-0.1149,-0.1169,-0.1202,-0.1203,-0.1204,-0.1133,-0.1129,-0.1126,0,0,0,0,0,-0.1004,-0.104,-0.1042,-0.1052,-0.1099,-0.1129,-0.1134,-0.1151,-0.1155,-0.1168,-0.1173,-0.1166,-0.1184,-0.1178,-0.118,-0.115,-0.1202,-0.1203,-0.1204,-0.1134,-0.113,-0.1126,0,0,0,0,0,0,-0.1013,-0.1045,-0.1047,-0.1094,-0.1112,-0.1132,-0.1157,-0.1163,-0.1178,-0.1183,-0.1177,-0.1178,-0.1175,-0.1193,-0.1187,-0.1169,-0.119,-0.1192,-0.1137,-0.1133,-0.1129,-0.1117,-0.117,0,0,0,0,0,-0.1021,-0.1049,-0.1074,-0.111,-0.1124,-0.1141,-0.1159,-0.1167,-0.1182,-0.119,-0.1192,-0.1196,-0.1179,-0.1183,-0.1182,-0.1184,-0.1193,-0.1169,-0.1166,-0.1162,-0.1157,-0.1155,-0.1149,-0.1208,-0.1208,-0.1208,0,0,-0.1036,-0.1057,-0.1075,-0.1113,-0.113,-0.1123,-0.1151,-0.1185,-0.1162,-0.1189,-0.1175,-0.1186,-0.118,-0.1164,-0.1165,-0.1176,-0.1152,-0.1164,-0.116,-0.1157,-0.1155,-0.1149,-0.1143,-0.1209,-0.1209,-0.1209,0,0,-0.1049,-0.1096,-0.1104,-0.1114,-0.1143,-0.1145,-0.1156,-0.1179,-0.1178,-0.118,-0.1171,-0.1168,-0.1177,-0.1143,-0.1129,-0.1116,-0.1131,-0.1132,-0.11,-0.1097,-0.1091,-0.1086,-0.1086,-0.1081,-0.1132,-0.1132,-0.1131,0,-0.1061,-0.1059,-0.1113,-0.1107,-0.1107,-0.1147,-0.113,-0.1132,-0.1151,-0.1154,-0.1172,-0.1164,-0.1149,-0.1101,-0.1084,-0.1099,-0.1121,-0.1105,-0.1088,-0.1084,-0.108,-0.1081,-0.1077,-0.1128,-0.1129,-0.1129,-0.1129,0,-0.1049,-0.1046,-0.1058,-0.1044,-0.1065,-0.1064,-0.1072,-0.1088,-0.1101,-0.1101,-0.1097,-0.1091,-0.1089,-0.1073,-0.1066,-0.1028,-0.106,-0.1077,-0.1088,-0.1069,-0.1072,-0.1069,-0.1123,-0.1125,-0.1126,-0.1126,0,0,-0.1051,-0.1042,-0.1037,-0.1026,-0.1024,-0.1051,-0.1021,-0.1015,-0.102,-0.1032,-0.1023,-0.0979,-0.1016,-0.1004,-0.1002,-0.0988,-0.0954,-0.1024,-0.1026,-0.1004,-0.0964,-0.0955,-0.0952,-0.0983,-0.0982,-0.0981,-0.0975,0,-0.1001,-0.0966,-0.0972,-0.0943,-0.093,-0.0958,-0.0939,-0.0957,-0.0971,-0.0982,-0.0976,-0.0975,-0.0975,-0.0988,-0.0966,-0.0962,-0.0946,-0.0955,-0.1004,-0.1005,-0.0982,-0.0947,-0.0979,-0.0973,-0.0972,-0.0971,-0.0971,0,-0.0957,-0.094,-0.0895,-0.09,-0.0904,-0.0902,-0.0924,-0.0915,-0.093,-0.0949,-0.0956,-0.0972,-0.0935,-0.0955,-0.0927,-0.0947,-0.0947,-0.0946,-0.0946,-0.096,-0.099,-0.1001,-0.0966,-0.0966,-0.0967,-0.0967,-0.0967,0,-0.0924,-0.089,-0.0855,-0.0849,-0.0858,-0.0871,-0.0889,-0.0916,-0.0929,-0.0941,-0.0959,-0.0945,-0.0942,-0.094,-0.0935,-0.094,-0.0926,-0.0931,-0.092,-0.092,-0.0962,-0.0968,-0.0911,-0.0911,-0.0911,-0.0911,-0.0911,0,-0.0851,-0.0834,-0.0851,-0.0837,-0.0858,-0.0877,-0.0906,-0.0928,-0.0945,-0.0959,-0.0955,-0.0948,-0.0944,-0.0939,-0.0937,-0.0921,-0.0928,-0.0901,-0.0911,-0.0934,-0.0937,-0.096,-0.0966,-0.091,-0.0911,-0.0911,-0.0911,0,-0.0818,-0.0799,-0.0795,-0.0816,-0.0844,-0.0877,-0.094,-0.0959,-0.0967,-0.0978,-0.0982,-0.0956,-0.0943,-0.0947,-0.0935,-0.0916,-0.0909,-0.0907,-0.0934,-0.0949,-0.0902,-0.0904,-0.0871,-0.087,-0.087,-0.0869,-0.0869,0,-0.078,-0.0762,-0.082,-0.0855,-0.0872,-0.0924,-0.0963,-0.0984,-0.0988,-0.0976,-0.0967,-0.0955,-0.0941,-0.0901,-0.0912,-0.0913,-0.0912,-0.09,-0.0879,-0.0881,-0.0894,-0.0898,-0.0901,-0.0868,-0.0868,-0.0868,-0.0868,0,-0.0716,-0.0754,-0.0788,-0.0868,-0.0919,-0.0957,-0.0996,-0.099,-0.099,-0.1003,-0.0938,-0.0914,-0.0894,-0.0874,-0.0892,-0.089,-0.0898,-0.0895,-0.0895,-0.0875,-0.0878,-0.0892,-0.0896,-0.0866,-0.0867,-0.0867,-0.0867,0,-0.0693,-0.0733,-0.0795,-0.088,-0.0949,-0.0956,-0.0979,-0.0966,-0.0961,-0.0929,-0.091,-0.0887,-0.0884,-0.0863,-0.0876,-0.088,-0.0863,-0.0835,-0.0838,-0.084,-0.0835,-0.0834,-0.0803,0,0,0,0,0,-0.0631,-0.0685,-0.0788,-0.0855,-0.094,-0.0946,-0.0987,-0.0988,-0.0971,-0.0921,-0.091,-0.0891,-0.0865,-0.0848,-0.0846,-0.0878,-0.0882,-0.0874,-0.0855,-0.0858,-0.0859,-0.0858,0,0,0,0,0,0,-0.058,-0.066,-0.0766,-0.0829,-0.0861,-0.0897,-0.09,-0.0894,-0.0856,-0.0853,-0.0841,-0.085,-0.0839,-0.0853,-0.0825,-0.083,-0.0808,-0.0878,-0.0877,-0.0857,-0.0858,-0.086,-0.0859,0,0,0,0,0]},{"header":{"parameterUnit":"m.s-1","parameterCategory":2,"la1":30.2991,"la2":30.254,"lo1":-89.0895,"lo2":-89.0444,"dy":0.0017,"dx":0.0017,"nx":28,"ny":28,"refTime":"2024-08-03T21:00:00:Z","depth":"4","parameterNumber":3,"parameterNumberName":"V-component_of_CURRENTS"},"data":[0,0,0,0,0,0,0,0,0,0,0,0,0,0,0,0,0,0,0,0,0,0,0,0,0,0,0,0,0,0,0,0,0,0,0,0,0,0,0,0,0,0,0,0,0,0,0,0,0,0,0,0,0,0,0,0,0,0,-0.0097,-0.0097,0,-0.0092,-0.0092,-0.0092,-0.0077,-0.0077,-0.0077,-0.0076,-0.0031,-0.003,-0.0029,0,0,0,0,0,0,0,0,0,0,0,0,0,-0.0053,-0.0054,-0.0097,-0.0097,-0.0098,-0.0092,-0.0092,-0.0092,-0.0077,-0.0077,-0.0077,-0.0076,-0.0032,-0.003,-0.0029,0,0,0,0,0,0,0,0,0,0,0,0,0,-0.006,-0.0054,-0.0097,-0.0091,-0.0091,-0.0092,-0.0092,-0.0092,-0.0077,-0.0077,-0.0077,-0.0076,-0.0032,-0.003,-0.0029,-0.0022,0,0,-0.0024,-0.0023,0,0,0,0,0,0,0,0,-0.006,-0.0061,-0.0092,-0.0092,-0.0091,-0.0087,-0.006,-0.0067,-0.0077,-0.008,-0.0076,-0.0076,-0.0048,-0.0045,-0.0041,-0.002,-0.0018,-0.0024,-0.0023,-0.0022,-0.0021,0,0,0,0,0,0,0,-0.0059,-0.0061,-0.0093,-0.0092,-0.0092,-0.0075,-0.0076,-0.0061,-0.0062,-0.0079,-0.0079,-0.0082,-0.0047,-0.0043,-0.004,-0.0017,-0.0024,-0.0022,-0.0021,-0.0021,0.0,0.0,0,0,0,0,0,0,-0.0067,-0.0061,-0.0093,-0.0093,-0.0078,-0.0076,-0.0077,-0.0087,-0.0063,-0.006,-0.0082,-0.0082,-0.0046,-0.0042,-0.0039,-0.0051,-0.0022,-0.002,-0.0019,0.0001,0.0,-0.0,0,0,0,0,0,0,-0.0067,-0.0071,-0.0093,-0.0078,-0.008,-0.0078,-0.0088,-0.0087,-0.0084,-0.0066,-0.0062,-0.0082,-0.0046,-0.0041,-0.0031,-0.0048,-0.002,-0.0018,0.0001,0.0001,0.0,-0.0061,0,0,0,0,0,0,-0.0065,-0.007,-0.0079,-0.0079,-0.0082,-0.0098,-0.0088,-0.0087,-0.0088,-0.0087,-0.0065,-0.006,-0.0045,-0.0033,-0.0029,-0.0045,-0.0017,0.0002,0.0001,0.0,-0.0058,-0.0063,-0.0068,0,0,0,0,0,-0.0064,-0.0082,-0.0079,-0.0083,-0.0094,-0.0098,-0.0098,-0.0093,-0.0088,-0.0089,-0.0076,-0.0061,-0.0036,-0.0032,-0.0027,-0.0043,0.0002,0.0001,0.0,-0.0056,-0.0062,-0.0068,0,0,0,0,0,0,-0.0071,-0.0082,-0.0079,-0.0101,-0.0099,-0.0097,-0.01,-0.0095,-0.0086,-0.0083,-0.0064,-0.0059,-0.006,-0.0039,-0.0036,-0.0039,-0.0015,-0.0015,-0.006,-0.0065,-0.007,-0.0062,-0.0015,0,0,0,0,0,-0.0076,-0.0089,-0.0093,-0.0108,-0.0109,-0.0103,-0.0104,-0.01,-0.0094,-0.009,-0.0076,-0.0062,-0.0059,-0.0052,-0.0042,-0.0038,-0.0001,-0.0045,-0.005,-0.0055,-0.0044,-0.0015,-0.0017,-0.0003,-0.0003,-0.0003,0,0,-0.0084,-0.0091,-0.01,-0.011,-0.0108,-0.0114,-0.0103,-0.0107,-0.0114,-0.0086,-0.0088,-0.0078,-0.0063,-0.0066,-0.0064,-0.005,-0.0037,-0.0056,-0.006,-0.0046,-0.0016,-0.0018,-0.0019,-0.0004,-0.0004,-0.0004,0,0,-0.0104,-0.0111,-0.0126,-0.0125,-0.0126,-0.0124,-0.0127,-0.0123,-0.0123,-0.0123,-0.0112,-0.0111,-0.0096,-0.0094,-0.0092,-0.0113,-0.0067,-0.011,-0.0126,-0.0099,-0.01,-0.01,-0.0049,-0.0044,-0.011,-0.011,-0.011,0,-0.0112,-0.013,-0.0129,-0.0138,-0.0138,-0.0131,-0.0138,-0.0143,-0.0136,-0.0128,-0.0129,-0.0111,-0.0112,-0.0113,-0.0132,-0.0126,-0.0087,-0.0109,-0.0105,-0.0105,-0.0104,-0.0051,-0.0045,-0.0113,-0.0113,-0.0113,-0.0112,0,-0.0138,-0.0149,-0.0157,-0.0166,-0.0165,-0.0171,-0.0173,-0.0171,-0.0168,-0.0163,-0.0157,-0.0156,-0.0135,-0.0153,-0.0155,-0.0153,-0.012,-0.0119,-0.0092,-0.0109,-0.0052,-0.0045,-0.0118,-0.0117,-0.0116,-0.0115,0,0,-0.0164,-0.0174,-0.0176,-0.0169,-0.0176,-0.0172,-0.0188,-0.0185,-0.0171,-0.018,-0.016,-0.019,-0.0168,-0.0163,-0.0163,-0.0159,-0.0141,-0.014,-0.0138,-0.0091,-0.0054,-0.0028,-0.0017,-0.0137,-0.0136,-0.0135,-0.0014,0,-0.0182,-0.0194,-0.02,-0.0203,-0.0201,-0.0194,-0.0198,-0.0191,-0.0183,-0.0161,-0.0168,-0.015,-0.0178,-0.0162,-0.0167,-0.0146,-0.0124,-0.0172,-0.0042,-0.0037,-0.0015,-0.0009,-0.0133,-0.0009,-0.0007,-0.0005,-0.0004,0,-0.0205,-0.0203,-0.0212,-0.0192,-0.019,-0.0192,-0.0165,-0.0167,-0.0147,-0.0137,-0.0123,-0.0108,-0.011,-0.0126,-0.009,-0.0115,-0.0084,-0.0071,-0.0065,-0.0012,0.0002,0.0012,0.001,0.0009,0.0008,0.0007,0.0006,0,-0.0206,-0.0208,-0.0208,-0.0206,-0.0192,-0.0185,-0.0175,-0.0153,-0.0139,-0.0109,-0.0078,-0.0071,-0.0043,-0.0032,-0.0013,-0.0041,0.0048,0.0017,0.008,0.0084,0.0051,0.005,0.0067,0.0066,0.0066,0.0066,0.0065,0,-0.022,-0.0219,-0.0202,-0.0202,-0.018,-0.0168,-0.0145,-0.0129,-0.0096,-0.0062,-0.0055,-0.0011,-0.0018,0.003,0.0027,0.0087,0.009,0.0092,0.0115,0.0024,0.0019,0.0058,0.0055,0.007,0.0069,0.0068,0.0068,0,-0.0231,-0.0228,-0.0218,-0.0194,-0.0186,-0.0164,-0.0135,-0.0118,-0.0074,-0.0025,-0.001,0.0049,0.0107,0.0121,0.0166,0.0164,0.02,0.023,0.0165,0.018,0.021,0.0203,0.0304,0.0305,0.0307,0.0308,0.031,0,-0.024,-0.0238,-0.0213,-0.0213,-0.0208,-0.0179,-0.0171,-0.0122,-0.0098,0.0016,0.0042,0.0135,0.0166,0.026,0.0264,0.03,0.0291,0.0328,0.0223,0.0222,0.0234,0.0224,0.0215,0.0312,0.0312,0.0313,0.0313,0,-0.0253,-0.0247,-0.024,-0.0244,-0.0234,-0.0212,-0.0183,-0.0147,-0.0074,-0.0021,0.0097,0.0166,0.0253,0.0283,0.0335,0.0346,0.0297,0.0343,0.0338,0.024,0.0233,0.0241,0.0231,0.0319,0.0318,0.0317,0.0317,0,-0.0265,-0.0262,-0.0271,-0.027,-0.0278,-0.0261,-0.0219,-0.0162,-0.0107,0.0034,0.0084,0.0184,0.0254,0.0315,0.0353,0.0374,0.0351,0.0329,0.0324,0.0318,0.0264,0.0253,0.0379,0,0,0,0,0,-0.0273,-0.0289,-0.0305,-0.031,-0.0332,-0.0332,-0.0254,-0.0202,-0.0094,-0.0018,0.0037,0.0119,0.0224,0.0283,0.0303,0.0343,0.033,0.0368,0.0294,0.0349,0.0343,0.0276,0,0,0,0,0,0,-0.0283,-0.0303,-0.0315,-0.0369,-0.0395,-0.04,-0.0349,-0.0258,-0.0196,-0.0077,-0.0025,0.0081,0.0166,0.0171,0.0275,0.0294,0.0247,0.0434,0.0435,0.0353,0.0347,0.0342,0.0271,0,0,0,0,0]}]]